Regional Weather Roundup
Issued by NWS

Home | Current Version | Previous Version | Graphics & Text | Print | Product List | Glossary Off
Versions: 1 2 3 4 5 6 7 8 9 10 11 12 13 14 15 16 17 18 19 20 21 22 23 24 25 26 27 28 29 30 31 32 33 34 35 36 37 38 39 40 41 42 43 44 45 46 47 48 49 50

000
ASUS43 KDMX 312307
RWRIA

WEATHER ROUNDUP FOR IOWA
NATIONAL WEATHER SERVICE DES MOINES IA
600 PM CDT SUN AUG 31 2014

NOTE: "FAIR" INDICATES FEW OR NO CLOUDS BELOW 12,000 FEET WITH NO
SIGNIFICANT WEATHER AND/OR OBSTRUCTIONS TO VISIBILITY.

* - THESE STATIONS ARE NOT NWS STATIONS...THUS NOT UNDER NWS
QUALITY CONTROL.  THEY ALSO DO NOT REPORT WEATHER SUCH
AS PRECIPITATION OR FOG.

IAZ001>003-012>014-020>022-031>034-043>046-010000-
   NORTHWEST IOWA

CITY           SKY/WX    TMP DP  RH WIND       PRES   REMARKS
CARROLL *      MOSUNNY   81  73  78 SE9G16    29.67F HX  85
CHEROKEE *     CLOUDY    73  70  88 CALM      29.69F FOG
DENISON *      PTSUNNY   81  72  74 SE14G22   29.62F HX  84
LE MARS *      PTSUNNY   75  72  88 NW3       29.70R
ORANGE CITY *  CLOUDY    72  66  83 NW5       29.73R
SHELDON *      LGT RAIN  73  70  88 W7        29.70R
SIOUX CITY     TSTM      66  64  93 W32G58      N/A  VSB 1/4
SPENCER        LGT RAIN  71  67  87 SE5       29.71S
STORM LAKE *   MOSUNNY   73  72  94 NE6       29.70S
$$

IAZ055>058-069>071-079>083-090>094-010000-
   SOUTHWEST IOWA

CITY           SKY/WX    TMP DP  RH WIND       PRES   REMARKS
ATLANTIC *     SUNNY     82  73  74 SE15G21   29.66F HX  88
AUDUBON *      SUNNY     82  75  78 SE12G18   29.68F HX  89
CLARINDA *     SUNNY     84  75  74 SE9G18    29.69F HX  92
COUNCIL BLFS * MOSUNNY   81  77  89 SE13G22   29.64R HX  88
CRESTON *      SUNNY     81  73  78 SE15G21   29.73F HX  85
HARLAN  *      MOSUNNY   81  73  78 SE13G20   29.68F HX  85
LAMONI         PTSUNNY   84  72  67 S12G22    29.76F HX  89
RED OAK *      SUNNY     82  75  78 SE15G23   29.67F HX  89
SHENANDOAH *   SUNNY     84  75  74 S13       29.67S HX  92
$$

IAZ047>049-059>061-072>074-084-010000-
   CENTRAL IOWA

CITY           SKY/WX    TMP DP  RH WIND       PRES   REMARKS
AMES           PTSUNNY   82  74  76 SE9       29.73F HX  88
ANKENY *       SUNNY     82  75  78 SE12G18   29.72F HX  89
CHARITON *     MOSUNNY   82  73  74 S13G21    29.77F HX  88
DES MOINES     CLOUDY    84  73  69 SE10      29.73F HX  90
GRINNELL*      CLOUDY    82  72  69 S7        29.80F HX  87
KNOXVILLE *    MOSUNNY   82  73  74 S9        29.76F HX  88
MARSHALLTOWN   CLOUDY    82  72  71 SE7       29.77F HX  87
PELLA *        CLOUDY    82  72  69 S7        29.78F HX  87
PERRY *          N/A     82  73  74 SE10      29.69F HX  88
$$

IAZ004>006-015-016-023>025-035-036-010000-
   NORTH CENTRAL IOWA

CITY           SKY/WX    TMP DP  RH WIND       PRES   REMARKS
ALGONA *       DRIZZLE   68  66  94 E7        29.73F
CLARION *      MOSUNNY   73  66  78 SE9       29.75F
ESTHERVILLE    TSTM      69  66  90 S13       29.72S
FORT DODGE *   PTSUNNY   75  66  73 E7        29.72F
MASON CITY     LGT RAIN  72  64  76 SW12G25   29.78S
FOREST CITY *  RAIN      72  63  73 SW14G21   29.79R
IOWA FALLS *     N/A     77  70  78 CALM      29.78S
$$

IAZ007>011-017>019-026>030-037>042-050>054-066-010000-
   NORTHEAST IOWA

CITY           SKY/WX    TMP DP  RH WIND       PRES   REMARKS
CEDAR RAPIDS   MOSUNNY   82  73  74 S8        29.80F HX  87
CHARLES CITY * MOSUNNY   73  66  78 SW8       29.78F
CLINTON *      MOSUNNY   84  70  61 S12       29.88S HX  88
DECORAH *      SUNNY     81  72  74 S9        29.78F HX  84
DUBUQUE        MOSUNNY   82  69  64 S13       29.84S HX  85
MONTICELLO *   SUNNY     82  72  69 S9        29.82S HX  87
OELWEIN *      MOSUNNY   81  73  78 S8        29.81S HX  85
WATERLOO       CLOUDY    82  72  71 S7        29.77F HX  87
$$

IAZ064-065-067-068-078-010000-
   EAST CENTRAL IOWA

CITY           SKY/WX    TMP DP  RH WIND       PRES   REMARKS
DAVENPORT      MOSUNNY   84  67  56 S13       29.86S HX  86
IOWA CITY      MOSUNNY   83  72  69 S10       29.82F HX  88
MT. PLEASANT * MOSUNNY   86  68  54 SE9       29.84F HX  89
MUSCATINE *    SUNNY     86  72  62 S15       29.82F HX  92
QUAD CITIES    MOSUNNY   86  69  56 S7        29.85F HX  90
$$

IAZ062-063-075>077-085>089-095>099-010000-
   SOUTHEAST IOWA

CITY           SKY/WX    TMP DP  RH WIND       PRES   REMARKS
BURLINGTON     MOSUNNY   86  73  65 S9        29.85F HX  93
FAIRFIELD *    SUNNY     86  72  62 S12       29.82F HX  92
FORT MADISON * SUNNY     86  72  62 S6        29.86S HX  92
KEOKUK *       SUNNY     86  72  62 S9        29.84F HX  92
OSKALOOSA *      N/A     84  73  70 S12       29.80F HX  91
CENTERVILLE *  SUNNY     82  75  78 SE8       29.81F HX  89
OTTUMWA        PTSUNNY   84  71  65 S13G21    29.79F HX  89
WASHINGTON *   SUNNY     84  73  70 S10       29.82S HX  91
$$

ABBREVIATIONS USED IN REMARKS
   TC - TEMPERATURES IN CELSIUS
  WCI - WIND CHILL INDEX
   HX - HEAT INDEX
  VSB - VISIBILITY
$$



USA.gov is the U.S. government's official web portal to all federal, state and local government web resources and services.